owner,sensor,date,latitude,longitude,vertical_datum,wind_speed,wind_to_direction,wind_speed_of_gust,qcFlag 
TCOON,ioos:station:TCOON:068:1,2009-03-01T00:00:00Z,27.2970,-97.4049,0.0,11.9,341.0,14.9,'11111222,11111222,11111222' 
TCOON,ioos:station:TCOON:068:1,2009-03-01T01:00:00Z,27.2970,-97.4049,0.0,5.5,340.0,6.7,'11111222,11111222,11111222' 
TCOON,ioos:station:TCOON:068:1,2009-03-01T03:00:00Z,27.2970,-97.4049,0.0,5.1,343.0,6.4,'11111222,11111222,11111222' 
TCOON,ioos:station:TCOON:068:1,2009-03-01T04:00:00Z,27.2970,-97.4049,0.0,6.3,346.0,7.4,'11111222,11111222,11111222' 
TCOON,ioos:station:TCOON:068:1,2009-03-01T05:00:00Z,27.2970,-97.4049,0.0,5.5,343.0,6.5,'11111222,11111222,11111222' 
TCOON,ioos:station:TCOON:068:1,2009-03-01T06:00:00Z,27.2970,-97.4049,0.0,6.1,355.0,7.1,'11111222,11111222,11111222' 
TCOON,ioos:station:TCOON:068:1,2009-03-01T07:00:00Z,27.2970,-97.4049,0.0,10.1,359.0,12.2,'11111222,11111222,11111222' 
TCOON,ioos:station:TCOON:068:1,2009-03-01T08:00:00Z,27.2970,-97.4049,0.0,8.5,358.0,10.5,'11111222,11111222,11111222' 
TCOON,ioos:station:TCOON:068:1,2009-03-01T09:00:00Z,27.2970,-97.4049,0.0,6.3,339.0,7.5,'11111222,11111222,11111222' 
TCOON,ioos:station:TCOON:068:1,2009-03-01T10:00:00Z,27.2970,-97.4049,0.0,7.9,337.0,8.9,'11111222,11111222,11111222' 
TCOON,ioos:station:TCOON:068:1,2009-03-01T11:00:00Z,27.2970,-97.4049,0.0,6.1,335.0,7.1,'11111222,11111222,11111222' 
TCOON,ioos:station:TCOON:068:1,2009-03-01T12:00:00Z,27.2970,-97.4049,0.0,6.9,335.0,8.0,'11111222,11111222,11111222' 
TCOON,ioos:station:TCOON:068:1,2009-03-01T13:00:00Z,27.2970,-97.4049,0.0,6.4,333.0,7.7,'11111222,11111222,11111222' 
TCOON,ioos:station:TCOON:068:1,2009-03-01T14:00:00Z,27.2970,-97.4049,0.0,8.4,332.0,10.1,'11111222,11111222,11111222' 
TCOON,ioos:station:TCOON:068:1,2009-03-01T15:00:00Z,27.2970,-97.4049,0.0,10.3,351.0,12.4,'11111222,11111222,11111222' 
TCOON,ioos:station:TCOON:068:1,2009-03-01T16:00:00Z,27.2970,-97.4049,0.0,9.0,339.0,10.8,'11111222,11111222,11111222' 
TCOON,ioos:station:TCOON:068:1,2009-03-01T17:00:00Z,27.2970,-97.4049,0.0,9.1,343.0,11.0,'11111222,11111222,11111222' 
TCOON,ioos:station:TCOON:068:1,2009-03-01T18:00:00Z,27.2970,-97.4049,0.0,7.1,353.0,8.4,'11111222,11111222,11111222' 
TCOON,ioos:station:TCOON:068:1,2009-03-01T19:00:00Z,27.2970,-97.4049,0.0,6.1,8.0,7.3,'11111222,11111222,11111222' 
TCOON,ioos:station:TCOON:068:1,2009-03-01T20:00:00Z,27.2970,-97.4049,0.0,6.5,18.0,8.5,'11111222,11111222,11111222' 
TCOON,ioos:station:TCOON:068:1,2009-03-01T21:00:00Z,27.2970,-97.4049,0.0,7.0,18.0,8.4,'11111222,11111222,11111222' 
TCOON,ioos:station:TCOON:068:1,2009-03-01T22:00:00Z,27.2970,-97.4049,0.0,5.1,23.0,6.1,'11111222,11111222,11111222' 
TCOON,ioos:station:TCOON:068:1,2009-03-01T23:00:00Z,27.2970,-97.4049,0.0,5.3,21.0,6.5,'11111222,11111222,11111222' 
TCOON,ioos:station:TCOON:068:1,2009-03-02T00:00:00Z,27.2970,-97.4049,0.0,4.4,68.0,5.0,'11111222,11111222,11111222' 
TCOON,ioos:station:TCOON:068:1,2009-03-02T01:00:00Z,27.2970,-97.4049,0.0,3.1,75.0,3.5,'11111222,11111222,11111222' 
TCOON,ioos:station:TCOON:068:1,2009-03-02T02:00:00Z,27.2970,-97.4049,0.0,2.4,70.0,2.8,'11111222,11111222,11111222' 
TCOON,ioos:station:TCOON:068:1,2009-03-02T03:00:00Z,27.2970,-97.4049,0.0,1.4,164.0,1.5,'11111222,11111222,11111222' 
TCOON,ioos:station:TCOON:068:1,2009-03-02T04:00:00Z,27.2970,-97.4049,0.0,2.4,214.0,2.7,'11111222,11111222,11111222' 
TCOON,ioos:station:TCOON:068:1,2009-03-02T05:00:00Z,27.2970,-97.4049,0.0,3.4,206.0,3.8,'11111222,11111222,11111222' 
TCOON,ioos:station:TCOON:068:1,2009-03-02T06:00:00Z,27.2970,-97.4049,0.0,3.6,207.0,3.9,'11111222,11111222,11111222' 
TCOON,ioos:station:TCOON:068:1,2009-03-02T07:00:00Z,27.2970,-97.4049,0.0,2.9,205.0,3.3,'11111222,11111222,11111222' 
TCOON,ioos:station:TCOON:068:1,2009-03-02T08:00:00Z,27.2970,-97.4049,0.0,2.8,209.0,3.2,'11111222,11111222,11111222' 
TCOON,ioos:station:TCOON:068:1,2009-03-02T09:00:00Z,27.2970,-97.4049,0.0,1.3,242.0,1.5,'11111222,11111222,11111222' 
TCOON,ioos:station:TCOON:068:1,2009-03-02T10:00:00Z,27.2970,-97.4049,0.0,1.2,285.0,1.5,'11111222,11111222,11111222' 
TCOON,ioos:station:TCOON:068:1,2009-03-02T11:00:00Z,27.2970,-97.4049,0.0,4.0,321.0,4.4,'11111222,11111222,11111222' 
TCOON,ioos:station:TCOON:068:1,2009-03-02T12:00:00Z,27.2970,-97.4049,0.0,4.2,304.0,4.7,'11111222,11111222,11111222' 
TCOON,ioos:station:TCOON:068:1,2009-03-02T13:00:00Z,27.2970,-97.4049,0.0,4.3,305.0,4.6,'11111222,11111222,11111222' 
TCOON,ioos:station:TCOON:068:1,2009-03-02T14:00:00Z,27.2970,-97.4049,0.0,4.2,313.0,4.7,'11111222,11111222,11111222' 
TCOON,ioos:station:TCOON:068:1,2009-03-02T15:00:00Z,27.2970,-97.4049,0.0,3.4,313.0,3.9,'11111222,11111222,11111222' 
TCOON,ioos:station:TCOON:068:1,2009-03-02T16:00:00Z,27.2970,-97.4049,0.0,1.2,257.0,1.5,'11111222,11111222,11111222' 
TCOON,ioos:station:TCOON:068:1,2009-03-02T17:00:00Z,27.2970,-97.4049,0.0,2.3,233.0,2.5,'11111222,11111222,11111222' 
TCOON,ioos:station:TCOON:068:1,2009-03-02T18:00:00Z,27.2970,-97.4049,0.0,0.8,250.0,0.9,'11111222,11111222,11111222' 
TCOON,ioos:station:TCOON:068:1,2009-03-02T19:00:00Z,27.2970,-97.4049,0.0,4.4,91.0,6.2,'11111222,11111222,11111222' 
TCOON,ioos:station:TCOON:068:1,2009-03-02T20:00:00Z,27.2970,-97.4049,0.0,5.3,92.0,6.6,'11111222,11111222,11111222' 
TCOON,ioos:station:TCOON:068:1,2009-03-02T21:00:00Z,27.2970,-97.4049,0.0,6.3,88.0,8.2,'11111222,11111222,11111222' 
TCOON,ioos:station:TCOON:068:1,2009-03-02T22:00:00Z,27.2970,-97.4049,0.0,6.2,91.0,7.7,'11111222,11111222,11111222' 
TCOON,ioos:station:TCOON:068:1,2009-03-02T23:00:00Z,27.2970,-97.4049,0.0,6.3,98.0,8.1,'11111222,11111222,11111222' 
TCOON,ioos:station:TCOON:068:1,2009-03-03T00:00:00Z,27.2970,-97.4049,0.0,5.3,109.0,6.3,'11111222,11111222,11111222' 
TCOON,ioos:station:TCOON:068:1,2009-03-03T01:00:00Z,27.2970,-97.4049,0.0,6.4,121.0,7.5,'11111222,11111222,11111222' 
TCOON,ioos:station:TCOON:068:1,2009-03-03T02:00:00Z,27.2970,-97.4049,0.0,5.2,121.0,6.9,'11111222,11111222,11111222' 
TCOON,ioos:station:TCOON:068:1,2009-03-03T03:00:00Z,27.2970,-97.4049,0.0,4.8,131.0,6.2,'11111222,11111222,11111222' 
TCOON,ioos:station:TCOON:068:1,2009-03-03T04:00:00Z,27.2970,-97.4049,0.0,5.2,133.0,6.4,'11111222,11111222,11111222' 
TCOON,ioos:station:TCOON:068:1,2009-03-03T05:00:00Z,27.2970,-97.4049,0.0,5.7,137.0,6.6,'11111222,11111222,11111222' 
TCOON,ioos:station:TCOON:068:1,2009-03-03T06:00:00Z,27.2970,-97.4049,0.0,5.2,147.0,6.2,'11111222,11111222,11111222' 
TCOON,ioos:station:TCOON:068:1,2009-03-03T07:00:00Z,27.2970,-97.4049,0.0,4.4,147.0,5.4,'11111222,11111222,11111222' 
TCOON,ioos:station:TCOON:068:1,2009-03-03T08:00:00Z,27.2970,-97.4049,0.0,4.7,144.0,5.8,'11111222,11111222,11111222' 
TCOON,ioos:station:TCOON:068:1,2009-03-03T09:00:00Z,27.2970,-97.4049,0.0,3.4,152.0,3.7,'11111222,11111222,11111222' 
TCOON,ioos:station:TCOON:068:1,2009-03-03T10:00:00Z,27.2970,-97.4049,0.0,3.1,136.0,3.7,'11111222,11111222,11111222' 
TCOON,ioos:station:TCOON:068:1,2009-03-03T11:00:00Z,27.2970,-97.4049,0.0,3.3,134.0,4.1,'11111222,11111222,11111222' 
TCOON,ioos:station:TCOON:068:1,2009-03-03T12:00:00Z,27.2970,-97.4049,0.0,3.3,126.0,3.9,'11111222,11111222,11111222' 
TCOON,ioos:station:TCOON:068:1,2009-03-03T13:00:00Z,27.2970,-97.4049,0.0,3.1,103.0,3.5,'11111222,11111222,11111222' 
TCOON,ioos:station:TCOON:068:1,2009-03-03T14:00:00Z,27.2970,-97.4049,0.0,3.1,109.0,3.9,'11111222,11111222,11111222' 
TCOON,ioos:station:TCOON:068:1,2009-03-03T15:00:00Z,27.2970,-97.4049,0.0,4.6,124.0,5.4,'11111222,11111222,11111222' 
TCOON,ioos:station:TCOON:068:1,2009-03-03T16:00:00Z,27.2970,-97.4049,0.0,6.2,133.0,7.6,'11111222,11111222,11111222' 
TCOON,ioos:station:TCOON:068:1,2009-03-03T17:00:00Z,27.2970,-97.4049,0.0,5.7,137.0,7.3,'11111222,11111222,11111222' 
TCOON,ioos:station:TCOON:068:1,2009-03-03T18:00:00Z,27.2970,-97.4049,0.0,6.3,130.0,8.4,'11111222,11111222,11111222' 
TCOON,ioos:station:TCOON:068:1,2009-03-03T19:00:00Z,27.2970,-97.4049,0.0,7.1,131.0,9.7,'11111222,11111222,11111222' 
TCOON,ioos:station:TCOON:068:1,2009-03-03T20:00:00Z,27.2970,-97.4049,0.0,7.6,126.0,9.1,'11111222,11111222,11111222' 
TCOON,ioos:station:TCOON:068:1,2009-03-03T21:00:00Z,27.2970,-97.4049,0.0,8.5,126.0,11.1,'11111222,11111222,11111222' 
TCOON,ioos:station:TCOON:068:1,2009-03-03T22:00:00Z,27.2970,-97.4049,0.0,8.8,124.0,10.8,'11111222,11111222,11111222' 
TCOON,ioos:station:TCOON:068:1,2009-03-03T23:00:00Z,27.2970,-97.4049,0.0,9.4,128.0,11.4,'11111222,11111222,11111222' 
TCOON,ioos:station:TCOON:068:1,2009-03-04T00:00:00Z,27.2970,-97.4049,0.0,8.7,126.0,10.4,'11111222,11111222,11111222' 
TCOON,ioos:station:TCOON:068:1,2009-03-04T01:00:00Z,27.2970,-97.4049,0.0,7.6,127.0,9.5,'11111222,11111222,11111222' 
TCOON,ioos:station:TCOON:068:1,2009-03-04T02:00:00Z,27.2970,-97.4049,0.0,6.9,126.0,8.2,'11111222,11111222,11111222' 
TCOON,ioos:station:TCOON:068:1,2009-03-04T03:00:00Z,27.2970,-97.4049,0.0,7.5,127.0,9.4,'11111222,11111222,11111222' 
TCOON,ioos:station:TCOON:068:1,2009-03-04T04:00:00Z,27.2970,-97.4049,0.0,6.6,128.0,8.2,'11111222,11111222,11111222' 
TCOON,ioos:station:TCOON:068:1,2009-03-04T05:00:00Z,27.2970,-97.4049,0.0,6.5,135.0,8.3,'11111222,11111222,11111222' 
TCOON,ioos:station:TCOON:068:1,2009-03-04T06:00:00Z,27.2970,-97.4049,0.0,6.5,140.0,7.5,'11111222,11111222,11111222' 
TCOON,ioos:station:TCOON:068:1,2009-03-04T07:00:00Z,27.2970,-97.4049,0.0,5.8,141.0,7.7,'11111222,11111222,11111222' 
TCOON,ioos:station:TCOON:068:1,2009-03-04T08:00:00Z,27.2970,-97.4049,0.0,6.6,144.0,8.7,'11111222,11111222,11111222' 
TCOON,ioos:station:TCOON:068:1,2009-03-04T09:00:00Z,27.2970,-97.4049,0.0,6.8,145.0,8.0,'11111222,11111222,11111222' 
TCOON,ioos:station:TCOON:068:1,2009-03-04T10:00:00Z,27.2970,-97.4049,0.0,6.3,145.0,7.7,'11111222,11111222,11111222' 
TCOON,ioos:station:TCOON:068:1,2009-03-04T11:00:00Z,27.2970,-97.4049,0.0,6.4,145.0,7.9,'11111222,11111222,11111222' 
TCOON,ioos:station:TCOON:068:1,2009-03-04T12:00:00Z,27.2970,-97.4049,0.0,5.4,141.0,6.7,'11111222,11111222,11111222' 
TCOON,ioos:station:TCOON:068:1,2009-03-04T13:00:00Z,27.2970,-97.4049,0.0,5.1,138.0,6.1,'11111222,11111222,11111222' 
TCOON,ioos:station:TCOON:068:1,2009-03-04T14:00:00Z,27.2970,-97.4049,0.0,6.0,145.0,6.9,'11111222,11111222,11111222' 
TCOON,ioos:station:TCOON:068:1,2009-03-04T15:00:00Z,27.2970,-97.4049,0.0,6.1,147.0,7.5,'11111222,11111222,11111222' 
TCOON,ioos:station:TCOON:068:1,2009-03-04T16:00:00Z,27.2970,-97.4049,0.0,7.1,144.0,8.7,'11111222,11111222,11111222' 
TCOON,ioos:station:TCOON:068:1,2009-03-04T17:00:00Z,27.2970,-97.4049,0.0,8.5,133.0,10.5,'11111222,11111222,11111222' 
TCOON,ioos:station:TCOON:068:1,2009-03-04T18:00:00Z,27.2970,-97.4049,0.0,8.8,131.0,12.1,'11111222,11111222,11111222' 
TCOON,ioos:station:TCOON:068:1,2009-03-04T19:00:00Z,27.2970,-97.4049,0.0,10.4,131.0,12.7,'11111222,11111222,11111222' 
TCOON,ioos:station:TCOON:068:1,2009-03-04T20:00:00Z,27.2970,-97.4049,0.0,11.4,128.0,15.0,'11111222,11111222,11111222' 
TCOON,ioos:station:TCOON:068:1,2009-03-04T21:00:00Z,27.2970,-97.4049,0.0,11.9,127.0,14.4,'11111222,11111222,11111222' 
TCOON,ioos:station:TCOON:068:1,2009-03-04T22:00:00Z,27.2970,-97.4049,0.0,11.3,129.0,15.1,'11111222,11111222,11111222' 
TCOON,ioos:station:TCOON:068:1,2009-03-04T23:00:00Z,27.2970,-97.4049,0.0,10.0,128.0,12.8,'11111222,11111222,11111222' 
TCOON,ioos:station:TCOON:068:1,2009-03-05T00:00:00Z,27.2970,-97.4049,0.0,8.6,125.0,9.9,'11111222,11111222,11111222' 
TCOON,ioos:station:TCOON:068:1,2009-03-05T01:00:00Z,27.2970,-97.4049,0.0,8.1,127.0,9.4,'11111222,11111222,11111222' 
TCOON,ioos:station:TCOON:068:1,2009-03-05T02:00:00Z,27.2970,-97.4049,0.0,7.4,129.0,9.6,'11111222,11111222,11111222' 
TCOON,ioos:station:TCOON:068:1,2009-03-05T03:00:00Z,27.2970,-97.4049,0.0,7.6,136.0,9.5,'11111222,11111222,11111222' 
TCOON,ioos:station:TCOON:068:1,2009-03-05T04:00:00Z,27.2970,-97.4049,0.0,7.9,144.0,9.5,'11111222,11111222,11111222' 
TCOON,ioos:station:TCOON:068:1,2009-03-05T05:00:00Z,27.2970,-97.4049,0.0,6.2,144.0,7.7,'11111222,11111222,11111222' 
TCOON,ioos:station:TCOON:068:1,2009-03-05T06:00:00Z,27.2970,-97.4049,0.0,5.4,143.0,7.0,'11111222,11111222,11111222' 
TCOON,ioos:station:TCOON:068:1,2009-03-05T07:00:00Z,27.2970,-97.4049,0.0,6.8,142.0,9.0,'11111222,11111222,11111222' 
TCOON,ioos:station:TCOON:068:1,2009-03-05T08:00:00Z,27.2970,-97.4049,0.0,8.6,139.0,10.7,'11111222,11111222,11111222' 
TCOON,ioos:station:TCOON:068:1,2009-03-05T09:00:00Z,27.2970,-97.4049,0.0,7.1,162.0,8.2,'11111222,11111222,11111222' 
TCOON,ioos:station:TCOON:068:1,2009-03-05T10:00:00Z,27.2970,-97.4049,0.0,7.0,142.0,9.3,'11111222,11111222,11111222' 
TCOON,ioos:station:TCOON:068:1,2009-03-05T11:00:00Z,27.2970,-97.4049,0.0,7.7,142.0,10.4,'11111222,11111222,11111222' 
TCOON,ioos:station:TCOON:068:1,2009-03-05T12:00:00Z,27.2970,-97.4049,0.0,7.4,137.0,9.0,'11111222,11111222,11111222' 
TCOON,ioos:station:TCOON:068:1,2009-03-05T13:00:00Z,27.2970,-97.4049,0.0,6.0,130.0,7.2,'11111222,11111222,11111222' 
TCOON,ioos:station:TCOON:068:1,2009-03-05T14:00:00Z,27.2970,-97.4049,0.0,8.2,137.0,9.5,'11111222,11111222,11111222' 
TCOON,ioos:station:TCOON:068:1,2009-03-05T15:00:00Z,27.2970,-97.4049,0.0,8.2,141.0,10.9,'11111222,11111222,11111222' 
TCOON,ioos:station:TCOON:068:1,2009-03-05T16:00:00Z,27.2970,-97.4049,0.0,9.2,139.0,11.0,'11111222,11111222,11111222' 
TCOON,ioos:station:TCOON:068:1,2009-03-05T17:00:00Z,27.2970,-97.4049,0.0,8.7,139.0,12.4,'11111222,11111222,11111222' 
TCOON,ioos:station:TCOON:068:1,2009-03-05T18:00:00Z,27.2970,-97.4049,0.0,10.5,137.0,13.7,'11111222,11111222,11111222' 
TCOON,ioos:station:TCOON:068:1,2009-03-05T19:00:00Z,27.2970,-97.4049,0.0,10.7,127.0,22.2,'11111222,11111222,11111222' 
TCOON,ioos:station:TCOON:068:1,2009-03-05T20:00:00Z,27.2970,-97.4049,0.0,11.3,124.0,14.8,'11111222,11111222,11111222' 
TCOON,ioos:station:TCOON:068:1,2009-03-05T21:00:00Z,27.2970,-97.4049,0.0,11.3,125.0,14.0,'11111222,11111222,11111222' 
TCOON,ioos:station:TCOON:068:1,2009-03-05T22:00:00Z,27.2970,-97.4049,0.0,10.3,121.0,13.3,'11111222,11111222,11111222' 
TCOON,ioos:station:TCOON:068:1,2009-03-05T23:00:00Z,27.2970,-97.4049,0.0,10.1,120.0,12.8,'11111222,11111222,11111222' 
TCOON,ioos:station:TCOON:068:1,2009-03-06T00:00:00Z,27.2970,-97.4049,0.0,8.8,115.0,11.1,'11111222,11111222,11111222' 
TCOON,ioos:station:TCOON:068:1,2009-03-06T01:00:00Z,27.2970,-97.4049,0.0,6.8,125.0,8.3,'11111222,11111222,11111222' 
TCOON,ioos:station:TCOON:068:1,2009-03-06T02:00:00Z,27.2970,-97.4049,0.0,7.2,125.0,9.1,'11111222,11111222,11111222' 
TCOON,ioos:station:TCOON:068:1,2009-03-06T03:00:00Z,27.2970,-97.4049,0.0,8.0,127.0,9.5,'11111222,11111222,11111222' 
TCOON,ioos:station:TCOON:068:1,2009-03-06T04:00:00Z,27.2970,-97.4049,0.0,8.1,135.0,10.1,'11111222,11111222,11111222' 
TCOON,ioos:station:TCOON:068:1,2009-03-06T05:00:00Z,27.2970,-97.4049,0.0,8.3,133.0,10.6,'11111222,11111222,11111222' 
TCOON,ioos:station:TCOON:068:1,2009-03-06T06:00:00Z,27.2970,-97.4049,0.0,8.1,137.0,10.7,'11111222,11111222,11111222' 
TCOON,ioos:station:TCOON:068:1,2009-03-06T07:00:00Z,27.2970,-97.4049,0.0,7.7,143.0,10.0,'11111222,11111222,11111222' 
TCOON,ioos:station:TCOON:068:1,2009-03-06T09:00:00Z,27.2970,-97.4049,0.0,6.7,137.0,8.4,'11111222,11111222,11111222' 
TCOON,ioos:station:TCOON:068:1,2009-03-06T10:00:00Z,27.2970,-97.4049,0.0,6.6,139.0,8.3,'11111222,11111222,11111222' 
TCOON,ioos:station:TCOON:068:1,2009-03-06T11:00:00Z,27.2970,-97.4049,0.0,6.1,141.0,8.3,'11111222,11111222,11111222' 
TCOON,ioos:station:TCOON:068:1,2009-03-06T12:00:00Z,27.2970,-97.4049,0.0,5.7,140.0,7.8,'11111222,11111222,11111222' 
TCOON,ioos:station:TCOON:068:1,2009-03-06T13:00:00Z,27.2970,-97.4049,0.0,6.4,136.0,7.8,'11111222,11111222,11111222' 
TCOON,ioos:station:TCOON:068:1,2009-03-06T14:00:00Z,27.2970,-97.4049,0.0,6.9,137.0,9.0,'11111222,11111222,11111222' 
TCOON,ioos:station:TCOON:068:1,2009-03-06T15:00:00Z,27.2970,-97.4049,0.0,8.0,143.0,9.9,'11111222,11111222,11111222' 
TCOON,ioos:station:TCOON:068:1,2009-03-06T16:00:00Z,27.2970,-97.4049,0.0,9.0,146.0,11.3,'11111222,11111222,11111222' 
TCOON,ioos:station:TCOON:068:1,2009-03-06T17:00:00Z,27.2970,-97.4049,0.0,11.3,147.0,13.7,'11111222,11111222,11111222' 
TCOON,ioos:station:TCOON:068:1,2009-03-06T18:00:00Z,27.2970,-97.4049,0.0,9.8,140.0,12.7,'11111222,11111222,11111222' 
TCOON,ioos:station:TCOON:068:1,2009-03-06T19:00:00Z,27.2970,-97.4049,0.0,10.6,132.0,14.4,'11111222,11111222,11111222' 
TCOON,ioos:station:TCOON:068:1,2009-03-06T20:00:00Z,27.2970,-97.4049,0.0,9.4,123.0,11.4,'11111222,11111222,11111222' 
TCOON,ioos:station:TCOON:068:1,2009-03-06T21:00:00Z,27.2970,-97.4049,0.0,8.8,122.0,11.5,'11111222,11111222,11111222' 
TCOON,ioos:station:TCOON:068:1,2009-03-06T22:00:00Z,27.2970,-97.4049,0.0,9.3,117.0,12.1,'11111222,11111222,11111222' 
TCOON,ioos:station:TCOON:068:1,2009-03-06T23:00:00Z,27.2970,-97.4049,0.0,8.7,119.0,11.9,'11111222,11111222,11111222' 
TCOON,ioos:station:TCOON:068:1,2009-03-07T00:00:00Z,27.2970,-97.4049,0.0,7.9,122.0,9.6,'11111222,11111222,11111222' 
TCOON,ioos:station:TCOON:068:1,2009-03-07T01:00:00Z,27.2970,-97.4049,0.0,9.1,126.0,10.9,'11111222,11111222,11111222' 
TCOON,ioos:station:TCOON:068:1,2009-03-07T02:00:00Z,27.2970,-97.4049,0.0,7.8,122.0,9.8,'11111222,11111222,11111222' 
TCOON,ioos:station:TCOON:068:1,2009-03-07T03:00:00Z,27.2970,-97.4049,0.0,8.4,124.0,10.0,'11111222,11111222,11111222' 
TCOON,ioos:station:TCOON:068:1,2009-03-07T04:00:00Z,27.2970,-97.4049,0.0,8.5,124.0,9.8,'11111222,11111222,11111222' 
TCOON,ioos:station:TCOON:068:1,2009-03-07T05:00:00Z,27.2970,-97.4049,0.0,8.0,126.0,10.3,'11111222,11111222,11111222' 
TCOON,ioos:station:TCOON:068:1,2009-03-07T06:00:00Z,27.2970,-97.4049,0.0,10.0,125.0,12.3,'11111222,11111222,11111222' 
TCOON,ioos:station:TCOON:068:1,2009-03-07T07:00:00Z,27.2970,-97.4049,0.0,9.2,127.0,11.7,'11111222,11111222,11111222' 
TCOON,ioos:station:TCOON:068:1,2009-03-07T08:00:00Z,27.2970,-97.4049,0.0,8.7,129.0,10.1,'11111222,11111222,11111222' 
TCOON,ioos:station:TCOON:068:1,2009-03-07T09:00:00Z,27.2970,-97.4049,0.0,8.9,127.0,11.8,'11111222,11111222,11111222' 
TCOON,ioos:station:TCOON:068:1,2009-03-07T10:00:00Z,27.2970,-97.4049,0.0,8.8,133.0,11.6,'11111222,11111222,11111222' 
TCOON,ioos:station:TCOON:068:1,2009-03-07T11:00:00Z,27.2970,-97.4049,0.0,7.5,136.0,9.4,'11111222,11111222,11111222' 
TCOON,ioos:station:TCOON:068:1,2009-03-07T12:00:00Z,27.2970,-97.4049,0.0,6.3,137.0,8.4,'11111222,11111222,11111222' 
TCOON,ioos:station:TCOON:068:1,2009-03-07T13:00:00Z,27.2970,-97.4049,0.0,5.6,137.0,6.8,'11111222,11111222,11111222' 
TCOON,ioos:station:TCOON:068:1,2009-03-07T14:00:00Z,27.2970,-97.4049,0.0,7.0,134.0,8.3,'11111222,11111222,11111222' 
TCOON,ioos:station:TCOON:068:1,2009-03-07T15:00:00Z,27.2970,-97.4049,0.0,9.2,137.0,12.6,'11111222,11111222,11111222' 
TCOON,ioos:station:TCOON:068:1,2009-03-07T16:00:00Z,27.2970,-97.4049,0.0,9.9,130.0,12.2,'11111222,11111222,11111222' 
TCOON,ioos:station:TCOON:068:1,2009-03-07T17:00:00Z,27.2970,-97.4049,0.0,9.9,135.0,12.6,'11111222,11111222,11111222' 
TCOON,ioos:station:TCOON:068:1,2009-03-07T18:00:00Z,27.2970,-97.4049,0.0,11.8,137.0,15.7,'11111222,11111222,11111222' 
TCOON,ioos:station:TCOON:068:1,2009-03-07T19:00:00Z,27.2970,-97.4049,0.0,10.8,129.0,13.6,'11111222,11111222,11111222' 
TCOON,ioos:station:TCOON:068:1,2009-03-07T20:00:00Z,27.2970,-97.4049,0.0,10.8,129.0,13.5,'11111222,11111222,11111222' 
TCOON,ioos:station:TCOON:068:1,2009-03-07T21:00:00Z,27.2970,-97.4049,0.0,10.9,124.0,12.8,'11111222,11111222,11111222' 
TCOON,ioos:station:TCOON:068:1,2009-03-07T22:00:00Z,27.2970,-97.4049,0.0,10.4,123.0,13.3,'11111222,11111222,11111222' 
TCOON,ioos:station:TCOON:068:1,2009-03-07T23:00:00Z,27.2970,-97.4049,0.0,10.3,123.0,13.3,'11111222,11111222,11111222' 
TCOON,ioos:station:TCOON:068:1,2009-03-08T00:00:00Z,27.2970,-97.4049,0.0,7.4,120.0,9.9,'11111222,11111222,11111222' 
TCOON,ioos:station:TCOON:068:1,2009-03-08T01:00:00Z,27.2970,-97.4049,0.0,6.7,113.0,8.0,'11111222,11111222,11111222' 
TCOON,ioos:station:TCOON:068:1,2009-03-08T02:00:00Z,27.2970,-97.4049,0.0,7.9,115.0,9.9,'11111222,11111222,11111222' 
TCOON,ioos:station:TCOON:068:1,2009-03-08T03:00:00Z,27.2970,-97.4049,0.0,9.5,127.0,11.3,'11111222,11111222,11111222' 
TCOON,ioos:station:TCOON:068:1,2009-03-08T04:00:00Z,27.2970,-97.4049,0.0,8.5,129.0,10.4,'11111222,11111222,11111222' 
TCOON,ioos:station:TCOON:068:1,2009-03-08T05:00:00Z,27.2970,-97.4049,0.0,8.9,131.0,11.9,'11111222,11111222,11111222' 
TCOON,ioos:station:TCOON:068:1,2009-03-08T06:00:00Z,27.2970,-97.4049,0.0,7.4,134.0,9.5,'11111222,11111222,11111222' 
TCOON,ioos:station:TCOON:068:1,2009-03-08T07:00:00Z,27.2970,-97.4049,0.0,7.2,137.0,10.1,'11111222,11111222,11111222' 
TCOON,ioos:station:TCOON:068:1,2009-03-08T08:00:00Z,27.2970,-97.4049,0.0,8.4,140.0,10.6,'11111222,11111222,11111222' 
TCOON,ioos:station:TCOON:068:1,2009-03-08T09:00:00Z,27.2970,-97.4049,0.0,6.9,147.0,8.5,'11111222,11111222,11111222' 
TCOON,ioos:station:TCOON:068:1,2009-03-08T10:00:00Z,27.2970,-97.4049,0.0,6.8,146.0,8.0,'11111222,11111222,11111222' 
TCOON,ioos:station:TCOON:068:1,2009-03-08T11:00:00Z,27.2970,-97.4049,0.0,3.9,155.0,5.0,'11111222,11111222,11111222' 
TCOON,ioos:station:TCOON:068:1,2009-03-08T12:00:00Z,27.2970,-97.4049,0.0,3.9,124.0,4.7,'11111222,11111222,11111222' 
TCOON,ioos:station:TCOON:068:1,2009-03-08T13:00:00Z,27.2970,-97.4049,0.0,5.1,113.0,6.3,'11111222,11111222,11111222' 
TCOON,ioos:station:TCOON:068:1,2009-03-08T14:00:00Z,27.2970,-97.4049,0.0,5.2,105.0,6.3,'11111222,11111222,11111222' 
TCOON,ioos:station:TCOON:068:1,2009-03-08T16:00:00Z,27.2970,-97.4049,0.0,6.9,129.0,8.7,'11111222,11111222,11111222' 
TCOON,ioos:station:TCOON:068:1,2009-03-08T17:00:00Z,27.2970,-97.4049,0.0,7.4,139.0,10.3,'11111222,11111222,11111222' 
TCOON,ioos:station:TCOON:068:1,2009-03-08T18:00:00Z,27.2970,-97.4049,0.0,8.2,124.0,10.5,'11111222,11111222,11111222' 
TCOON,ioos:station:TCOON:068:1,2009-03-08T19:00:00Z,27.2970,-97.4049,0.0,7.3,122.0,9.3,'11111222,11111222,11111222' 
TCOON,ioos:station:TCOON:068:1,2009-03-08T20:00:00Z,27.2970,-97.4049,0.0,7.4,119.0,9.5,'11111222,11111222,11111222' 
TCOON,ioos:station:TCOON:068:1,2009-03-08T21:00:00Z,27.2970,-97.4049,0.0,7.3,110.0,9.3,'11111222,11111222,11111222' 
TCOON,ioos:station:TCOON:068:1,2009-03-08T22:00:00Z,27.2970,-97.4049,0.0,6.8,105.0,8.8,'11111222,11111222,11111222' 
TCOON,ioos:station:TCOON:068:1,2009-03-08T23:00:00Z,27.2970,-97.4049,0.0,7.1,93.0,8.0,'11111222,11111222,11111222' 
TCOON,ioos:station:TCOON:068:1,2009-03-09T00:00:00Z,27.2970,-97.4049,0.0,6.6,84.0,7.7,'11111222,11111222,11111222' 
TCOON,ioos:station:TCOON:068:1,2009-03-09T01:00:00Z,27.2970,-97.4049,0.0,6.3,84.0,7.6,'11111222,11111222,11111222' 
TCOON,ioos:station:TCOON:068:1,2009-03-09T02:00:00Z,27.2970,-97.4049,0.0,7.3,86.0,8.4,'11111222,11111222,11111222' 
TCOON,ioos:station:TCOON:068:1,2009-03-09T03:00:00Z,27.2970,-97.4049,0.0,7.0,100.0,8.1,'11111222,11111222,11111222' 
TCOON,ioos:station:TCOON:068:1,2009-03-09T04:00:00Z,27.2970,-97.4049,0.0,6.6,114.0,8.8,'11111222,11111222,11111222' 
TCOON,ioos:station:TCOON:068:1,2009-03-09T05:00:00Z,27.2970,-97.4049,0.0,5.3,126.0,6.7,'11111222,11111222,11111222' 
TCOON,ioos:station:TCOON:068:1,2009-03-09T06:00:00Z,27.2970,-97.4049,0.0,6.2,136.0,7.9,'11111222,11111222,11111222' 
TCOON,ioos:station:TCOON:068:1,2009-03-09T07:00:00Z,27.2970,-97.4049,0.0,7.3,149.0,8.9,'11111222,11111222,11111222' 
TCOON,ioos:station:TCOON:068:1,2009-03-09T08:00:00Z,27.2970,-97.4049,0.0,7.8,151.0,9.1,'11111222,11111222,11111222' 
TCOON,ioos:station:TCOON:068:1,2009-03-09T09:00:00Z,27.2970,-97.4049,0.0,7.5,143.0,9.8,'11111222,11111222,11111222' 
TCOON,ioos:station:TCOON:068:1,2009-03-09T10:00:00Z,27.2970,-97.4049,0.0,8.6,142.0,11.6,'11111222,11111222,11111222' 
TCOON,ioos:station:TCOON:068:1,2009-03-09T11:00:00Z,27.2970,-97.4049,0.0,7.0,143.0,9.0,'11111222,11111222,11111222' 
TCOON,ioos:station:TCOON:068:1,2009-03-09T12:00:00Z,27.2970,-97.4049,0.0,6.2,148.0,7.2,'11111222,11111222,11111222' 
TCOON,ioos:station:TCOON:068:1,2009-03-09T13:00:00Z,27.2970,-97.4049,0.0,6.0,154.0,6.9,'11111222,11111222,11111222' 